| time (UTC) | temp C | wind direction | speed KPH | gust KPH | rain 1hr cm | rain 24hr cm | rain mn cm | humidity % | barometer mb |
| 20260905213615 | 30 | 19 | 6.4 | 16.1 | 0.00 | 0.00 | 0.00 | 34 | 1005.0 |
| 20260905212625 | 30 | 44 | 3.2 | 14.5 | 0.00 | 0.00 | 0.00 | 34 | 1005.3 |
| 20260905211610 | 30 | 34 | 3.2 | 12.9 | 0.00 | 0.00 | 0.00 | 34 | 1005.5 |
| 20260905210613 | 30 | 57 | 4.8 | 12.9 | 0.00 | 0.00 | 0.00 | 37 | 1005.6 |
| 20260905204418 | 27 | 123 | 4.8 | 9.7 | 0.00 | 0.00 | 0.00 | 40 | 1006.0 |
| 20260905202239 | 27 | 125 | 4.8 | 14.5 | 0.00 | 0.00 | 0.00 | 42 | 1006.3 |
| 20260905201233 | 26 | 85 | 6.4 | 14.5 | 0.00 | 0.00 | 0.00 | 42 | 1006.3 |
| 20260905200251 | 26 | 115 | 6.4 | 14.5 | 0.00 | 0.00 | 0.00 | 42 | 1006.6 |
| 20260905194137 | 27 | 134 | 1.6 | 8.0 | 0.00 | 0.00 | 0.00 | 40 | 1006.6 |
| 20260905193103 | 27 | 75 | 0.0 | 9.7 | 0.00 | 0.00 | 0.00 | 42 | 1006.6 |
| 20260905192111 | 27 | 127 | 3.2 | 9.7 | 0.00 | 0.00 | 0.00 | 41 | 1006.7 |
| 20260905191133 | 28 | 215 | 3.2 | 11.3 | 0.00 | 0.00 | 0.00 | 40 | 1006.8 |
| 20260905190114 | 27 | 25 | 3.2 | 16.1 | 0.00 | 0.00 | 0.00 | 41 | 1007.0 |
| 20260905185132 | 27 | 36 | 6.4 | 16.1 | 0.00 | 0.00 | 0.00 | 41 | 1007.2 |
| 20260905184148 | 27 | 50 | 3.2 | 14.5 | 0.00 | 0.00 | 0.00 | 41 | 1007.4 |
| 20260905180834 | 27 | 59 | 4.8 | 16.1 | 0.00 | 0.00 | 0.00 | 41 | 1008.0 |
| 20260905175829 | 28 | 154 | 4.8 | 12.9 | 0.00 | 0.00 | 0.00 | 40 | 1008.1 |
| 20260905174811 | 28 | 40 | 3.2 | 14.5 | 0.00 | 0.00 | 0.00 | 40 | 1008.3 |
| 20260905173821 | 27 | 115 | 4.8 | 14.5 | 0.00 | 0.00 | 0.00 | 42 | 1008.3 |
| 20260905172814 | 26 | 64 | 3.2 | 12.9 | 0.00 | 0.00 | 0.00 | 43 | 1008.3 |
| 20260905171823 | 27 | 152 | 4.8 | 12.9 | 0.00 | 0.00 | 0.00 | 44 | 1008.3 |
| 20260905170806 | 26 | 116 | 4.8 | 12.9 | 0.00 | 0.00 | 0.00 | 45 | 1008.3 |
| 20260905165749 | 26 | 139 | 4.8 | 9.7 | 0.00 | 0.00 | 0.00 | 46 | 1008.3 |
| 20260905164741 | 27 | 146 | 3.2 | 8.0 | 0.00 | 0.00 | 0.00 | 45 | 1008.2 |
| 20260905163744 | 26 | 4 | 3.2 | 8.0 | 0.00 | 0.00 | 0.00 | 44 | 1008.2 |
| 20260905162726 | 26 | 90 | 1.6 | 9.7 | 0.00 | 0.00 | 0.00 | 46 | 1008.4 |
| 20260905160603 | 26 | 359 | 3.2 | 8.0 | 0.00 | 0.00 | 0.00 | 42 | 1008.2 |
| 20260905155544 | 25 | 157 | 1.6 | 6.4 | 0.00 | 0.00 | 0.00 | 49 | 1008.2 |
| 20260905153416 | 22 | 163 | 3.2 | 8.0 | 0.00 | 0.00 | 0.00 | 62 | 1008.3 |
| 20260905152356 | 22 | 221 | 1.6 | 8.0 | 0.00 | 0.00 | 0.00 | 65 | 1008.4 |
| 20260905151347 | 21 | 154 | 1.6 | 6.4 | 0.00 | 0.00 | 0.00 | 66 | 1008.4 |
| 20260905150344 | 21 | 4 | 1.6 | 6.4 | 0.00 | 0.00 | 0.00 | 68 | 1008.3 |
| 20260905145407 | 21 | 179 | 3.2 | 6.4 | 0.00 | 0.00 | 0.00 | 69 | 1008.3 |
| 20260905144430 | 20 | 198 | 3.2 | 6.4 | 0.00 | 0.00 | 0.00 | 70 | 1008.2 |
| 20260905143439 | 20 | 182 | 3.2 | 8.0 | 0.00 | 0.00 | 0.00 | 73 | 1008.2 |
| 20260905142410 | 19 | 217 | 4.8 | 9.7 | 0.00 | 0.00 | 0.00 | 75 | 1008.2 |
| 20260905140247 | 18 | 164 | 1.6 | 6.4 | 0.00 | 0.00 | 0.00 | 72 | 1007.9 |
| 20260905135300 | 18 | 221 | 3.2 | 6.4 | 0.00 | 0.00 | 0.00 | 73 | 1007.7 |
| 20260905134318 | 18 | 218 | 3.2 | 6.4 | 0.00 | 0.00 | 0.00 | 74 | 1007.6 |
| 20260905133244 | 17 | 231 | 4.8 | 6.4 | 0.00 | 0.00 | 0.00 | 77 | 1007.6 |
| 20260905132233 | 17 | 221 | 3.2 | 6.4 | 0.00 | 0.00 | 0.00 | 79 | 1007.4 |
| 20260905131236 | 17 | 211 | 1.6 | 4.8 | 0.00 | 0.00 | 0.00 | 78 | 1007.3 |
| 20260905125051 | 18 | 225 | 1.6 | 8.0 | 0.00 | 0.00 | 0.00 | 74 | 1007.0 |
| 20260905124111 | 18 | 4 | 4.8 | 16.1 | 0.00 | 0.00 | 0.00 | 73 | 1006.9 |
| 20260905123127 | 18 | 184 | 8.0 | 16.1 | 0.00 | 0.00 | 0.00 | 72 | 1006.8 |
| 20260905122152 | 18 | 229 | 4.8 | 11.3 | 0.00 | 0.00 | 0.00 | 73 | 1006.8 |
| 20260905121135 | 18 | 208 | 4.8 | 9.7 | 0.00 | 0.00 | 0.00 | 72 | 1006.8 |
| 20260905120109 | 18 | 209 | 4.8 | 14.5 | 0.00 | 0.00 | 0.00 | 71 | 1006.8 |
| 20260905113924 | 19 | 227 | 8.0 | 14.5 | 0.00 | 0.00 | 0.00 | 70 | 1006.7 |
| 20260905112930 | 19 | 204 | 6.4 | 14.5 | 0.00 | 0.00 | 0.00 | 71 | 1006.7 |
| 20260905111954 | 19 | 194 | 9.7 | 17.7 | 0.00 | 0.00 | 0.00 | 70 | 1006.6 |
| 20260905105844 | 19 | 168 | 8.0 | 17.7 | 0.00 | 0.00 | 0.00 | 69 | 1006.7 |
| 20260905103647 | 20 | 167 | 9.7 | 20.9 | 0.00 | 0.00 | 0.00 | 69 | 1006.6 |
| 20260905102711 | 20 | 211 | 11.3 | 20.9 | 0.00 | 0.00 | 0.00 | 68 | 1006.7 |
| 20260905101641 | 20 | 217 | 12.9 | 20.9 | 0.00 | 0.00 | 0.00 | 68 | 1006.6 |
| 20260905100639 | 19 | 215 | 9.7 | 19.3 | 0.00 | 0.00 | 0.00 | 69 | 1006.6 |
| 20260905095639 | 18 | 222 | 6.4 | 14.5 | 0.00 | 0.00 | 0.00 | 72 | 1006.5 |
| 20260905093505 | 18 | 192 | 6.4 | 12.9 | 0.00 | 0.00 | 0.00 | 72 | 1006.5 |
| 20260905092458 | 19 | 195 | 8.0 | 22.5 | 0.00 | 0.00 | 0.00 | 71 | 1006.6 |
| 20260905091516 | 19 | 4 | 8.0 | 22.5 | 0.00 | 0.00 | 0.00 | 71 | 1006.5 |
| 20260905090535 | 19 | 201 | 6.4 | 22.5 | 0.00 | 0.36 | 0.00 | 70 | 1006.6 |
| 20260905085556 | 19 | 211 | 6.4 | 12.9 | 0.00 | 0.91 | 0.00 | 69 | 1006.6 |
| 20260905083429 | 19 | 206 | 4.8 | 14.5 | 0.00 | 0.99 | 0.00 | 71 | 1006.7 |
| 20260905082446 | 18 | 4 | 4.8 | 8.0 | 0.00 | 0.99 | 0.00 | 71 | 1006.8 |
| 20260905081435 | 18 | 231 | 3.2 | 8.0 | 0.00 | 0.99 | 0.00 | 72 | 1006.7 |
| 20260905080404 | 19 | 181 | 3.2 | 6.4 | 0.00 | 0.99 | 0.00 | 71 | 1006.8 |
| 20260905075357 | 19 | 199 | 3.2 | 6.4 | 0.00 | 0.99 | 0.00 | 70 | 1006.9 |
| 20260905074332 | 19 | 211 | 1.6 | 4.8 | 0.00 | 0.99 | 0.00 | 70 | 1006.9 |
| 20260905073338 | 20 | 161 | 0.0 | 1.6 | 0.00 | 0.99 | 0.00 | 67 | 1007.1 |
| 20260905071215 | 20 | 213 | 4.8 | 11.3 | 0.00 | 0.99 | 0.00 | 67 | 1007.1 |
| 20260905070154 | 20 | 211 | 6.4 | 9.7 | 0.00 | 0.99 | 0.00 | 69 | 1007.1 |
| 20260905065127 | 20 | 225 | 6.4 | 9.7 | 0.00 | 0.99 | 0.00 | 70 | 1007.0 |
| 20260905062939 | 20 | 237 | 6.4 | 12.9 | 0.00 | 0.99 | 0.00 | 69 | 1007.1 |
| 20260905061919 | 20 | 194 | 4.8 | 8.0 | 0.00 | 0.99 | 0.00 | 68 | 1007.1 |
| 20260905060844 | 20 | 215 | 4.8 | 8.0 | 0.00 | 0.99 | 0.00 | 67 | 1007.2 |
| 20260905055821 | 20 | 229 | 4.8 | 6.4 | 0.00 | 0.99 | 0.97 | 68 | 1007.2 |
| 20260905054811 | 20 | 233 | 3.2 | 4.8 | 0.00 | 0.99 | 0.97 | 67 | 1007.3 |
| 20260905053827 | 20 | 214 | 3.2 | 4.8 | 0.00 | 0.99 | 0.97 | 67 | 1007.3 |
| 20260905052806 | 20 | 225 | 4.8 | 6.4 | 0.00 | 0.99 | 0.97 | 67 | 1007.3 |
| 20260905051823 | 20 | 231 | 4.8 | 6.4 | 0.00 | 0.99 | 0.97 | 68 | 1007.2 |
| 20260905050754 | 20 | 261 | 3.2 | 6.4 | 0.00 | 0.99 | 0.97 | 67 | 1007.4 |
| 20260905045809 | 21 | 219 | 1.6 | 4.8 | 0.00 | 0.99 | 0.97 | 66 | 1007.4 |
| 20260905044810 | 21 | 179 | 1.6 | 4.8 | 0.00 | 0.99 | 0.97 | 64 | 1007.3 |
| 20260905043747 | 21 | 209 | 1.6 | 8.0 | 0.00 | 0.99 | 0.97 | 63 | 1007.3 |
| 20260905042753 | 21 | 4 | 3.2 | 8.0 | 0.00 | 0.99 | 0.97 | 62 | 1007.2 |
| 20260905041812 | 21 | 167 | 4.8 | 12.9 | 0.00 | 0.99 | 0.97 | 61 | 1007.2 |
| 20260905035652 | 22 | 179 | 4.8 | 8.0 | 0.00 | 0.99 | 0.97 | 60 | 1007.2 |
| 20260905034716 | 22 | 190 | 3.2 | 11.3 | 0.00 | 0.99 | 0.97 | 60 | 1007.1 |
| 20260905032555 | 21 | 167 | 4.8 | 12.9 | 0.00 | 0.99 | 0.97 | 62 | 1007.1 |
| 20260905031600 | 21 | 217 | 3.2 | 6.4 | 0.00 | 0.99 | 0.97 | 63 | 1007.1 |
| 20260905030617 | 21 | 214 | 1.6 | 3.2 | 0.00 | 0.99 | 0.97 | 65 | 1006.9 |
| 20260905025621 | 21 | 57 | 0.0 | 0.0 | 0.00 | 0.99 | 0.97 | 65 | 1006.8 |
| 20260905023501 | 21 | 43 | 0.0 | 0.0 | 0.00 | 0.99 | 0.97 | 65 | 1006.6 |
| 20260905022520 | 22 | 144 | 0.0 | 8.0 | 0.00 | 0.99 | 0.97 | 63 | 1006.3 |
| 20260905021515 | 22 | 121 | 0.0 | 0.0 | 0.00 | 0.99 | 0.97 | 61 | 1006.1 |
| 20260905020445 | 22 | 121 | 0.0 | 0.0 | 0.00 | 0.99 | 0.97 | 60 | 1006.1 |
| 20260905015413 | 23 | 121 | 0.0 | 0.0 | 0.00 | 0.99 | 0.97 | 56 | 1006.0 |
| 20260905014431 | 23 | 121 | 1.6 | 4.8 | 0.00 | 0.99 | 0.97 | 55 | 1006.1 |
| 20260905012317 | 24 | 187 | 3.2 | 8.0 | 0.00 | 0.99 | 0.97 | 52 | 1006.1 |
| 20260905011327 | 24 | 230 | 1.6 | 9.7 | 0.00 | 0.99 | 0.97 | 52 | 1006.0 |
| 20260905010301 | 24 | 265 | 4.8 | 16.1 | 0.00 | 0.99 | 0.97 | 51 | 1006.0 |
| 20260905005238 | 25 | 264 | 8.0 | 16.1 | 0.00 | 0.99 | 0.97 | 48 | 1005.8 |
| 20260905004214 | 25 | 288 | 8.0 | 16.1 | 0.00 | 0.99 | 0.97 | 48 | 1005.8 |
| 20260905003204 | 25 | 279 | 11.3 | 19.3 | 0.00 | 0.99 | 0.97 | 48 | 1005.6 |
| 20260905002222 | 25 | 288 | 9.7 | 19.3 | 0.00 | 0.99 | 0.97 | 51 | 1005.5 |
| 20260905001218 | 25 | 278 | 9.7 | 25.7 | 0.00 | 0.99 | 0.97 | 53 | 1005.5 |
| 20260905000144 | 24 | 282 | 12.9 | 30.6 | 0.00 | 0.99 | 0.97 | 54 | 1005.3 |
| 20260904235114 | 25 | 304 | 17.7 | 38.6 | 0.00 | 0.99 | 0.97 | 53 | 1005.2 |
| 20260904234117 | 26 | 283 | 12.9 | 38.6 | 0.00 | 0.99 | 0.97 | 49 | 1005.1 |
| 20260904233121 | 28 | 185 | 12.9 | 27.4 | 0.00 | 0.99 | 0.97 | 43 | 1005.0 |
| 20260904232128 | 27 | 225 | 14.5 | 27.4 | 0.00 | 0.99 | 0.97 | 43 | 1004.8 |
| 20260904231127 | 28 | 162 | 12.9 | 25.7 | 0.00 | 0.99 | 0.97 | 43 | 1004.9 |
| 20260904230053 | 28 | 173 | 12.9 | 30.6 | 0.00 | 0.99 | 0.97 | 42 | 1005.0 |
| 20260904225033 | 27 | 220 | 16.1 | 30.6 | 0.00 | 0.99 | 0.97 | 45 | 1005.0 |
| 20260904224020 | 28 | 175 | 12.9 | 30.6 | 0.00 | 0.99 | 0.97 | 42 | 1005.1 |
| 20260904222952 | 28 | 244 | 11.3 | 30.6 | 0.00 | 0.99 | 0.97 | 44 | 1005.0 |
| 20260904221942 | 28 | 237 | 14.5 | 29.0 | 0.00 | 0.99 | 0.97 | 42 | 1005.0 |
| 20260904215842 | 27 | 231 | 11.3 | 20.9 | 0.00 | 0.99 | 0.97 | 45 | 1005.3 |